Location: Cuguron
(43.0994°N, 0.5363°E)
Time: 13:37:11
(UTC+00:00)

Cosmos 1076 Rocket - Pass Details

Date: 15 May 2026
Orbit: 579 x 604 km, 82.5° (Epoch: 11 June)

Event Time Altitude Azimuth Distance (km) Brightness Sun altitude
Rises 22:30:44 0° 344° (NNW) 2,831 8.3 -25.0°
Reaches altitude 10° 22:33:03 10° 337° (NNW) 1,921 7.1 -25.1°
Enters shadow 22:36:59 39° 269° (W) 880 4.4 -25.4°
